Southend-On-Sea, United Kingdom

6:10 AM BST on October 19, 2017 (GMT +0100)
Southend

Weather History for EGMC - October, 2017

Change the Weather History Date:

Thursday, October 12, 2017

  Actual Average Record
Temperature  
Mean Temperature 59 °F -  
Max Temperature 68 °F 54 °F 69 °F (2001)
Min Temperature 50 °F 44 °F 41 °F (1999)
Degree Days  
Heating Degree Days 6    
Growing Degree Days 9 (Base 50)    
Moisture  
Dew Point 47 °F    
Average Humidity 73    
Maximum Humidity 88    
Minimum Humidity 52    
Precipitation  
Precipitation 0.00 in - - ()
Sea Level Pressure  
Sea Level Pressure 30.11 in    
Wind  
Wind Speed 10 mph ()    
Max Wind Speed 17 mph    
Max Gust Speed -    
Visibility 6.2 miles    
Events      
Averages and records for this station are not official NWS values.
T = Trace of Precipitation, MM = Missing Value Source: Averaged Metar Reports

Daily Weather History Graph

Daily Weather History Graph

Search for Another Location

Airport or City:

Trip Planner

Search our weather history database for the weather conditions in past years. The results will help you decide how hot, cold, wet, or windy it might be!

Date:

Astronomy

Oct. 12, 2017 Rise Set
Actual Time 7:16 AM BST 6:10 PM BST
Civil Twilight 6:42 AM BST 6:43 PM BST
Nautical Twilight 6:04 AM BST 7:22 PM BST
Astronomical Twilight 5:25 AM BST 8:01 PM BST
Moon 11:36 PM BST (10/12) 2:39 PM BST (10/12)
Length of Visible Light 12h 00m
Length of Day
10h 53m
Waning Gibbous, 51% of the Moon is Illuminated
Oct 12
Waning Gibbous
Oct 12
Last Quarter
Oct 19
New
Oct 27
First Quarter
Nov 4
Full

Hourly Weather History & Observations

Time (BST) Temp. Dew Point Humidity Pressure Visibility Wind Dir Wind Speed Gust Speed Precip Events Conditions
12:20 AM 53.6 °F 48.2 °F 82% 29.92 in - WSW 12.7 mph - N/A   Clear
12:50 AM 53.6 °F 46.4 °F 77% 29.92 in - WSW 12.7 mph - N/A   Clear
1:50 AM 53.6 °F 48.2 °F 82% 29.95 in - WSW 10.4 mph - N/A   Clear
2:50 AM 51.8 °F 46.4 °F 82% 29.98 in - WSW 9.2 mph - N/A   Clear
3:50 AM 51.8 °F 46.4 °F 82% 30.01 in - WSW 10.4 mph - N/A   Clear
4:20 AM 51.8 °F 46.4 °F 82% 30.01 in - WSW 10.4 mph - N/A   Clear
4:50 AM 51.8 °F 46.4 °F 82% 30.01 in - SW 10.4 mph - N/A   Clear
5:20 AM 51.8 °F 46.4 °F 82% 30.04 in - WSW 10.4 mph - N/A   Clear
5:50 AM 51.8 °F 46.4 °F 82% 30.04 in - WSW 9.2 mph - N/A   Clear
6:20 AM 51.8 °F 46.4 °F 82% 30.06 in - WSW 10.4 mph - N/A   Clear
6:50 AM 51.8 °F 48.2 °F 88% 30.06 in - WSW 8.1 mph - N/A   Clear
7:20 AM 50.0 °F 46.4 °F 87% 30.09 in - WSW 10.4 mph - N/A   Clear
7:50 AM 51.8 °F 46.4 °F 82% 30.09 in 6.2 mi SW 8.1 mph - N/A   Partly Cloudy
8:20 AM 51.8 °F 46.4 °F 82% 30.09 in 6.2 mi SW 6.9 mph - N/A   Partly Cloudy
8:50 AM 53.6 °F 48.2 °F 82% 30.09 in - SW 10.4 mph - N/A   Clear
9:20 AM 53.6 °F 50.0 °F 88% 30.12 in - SW 6.9 mph - N/A   Clear
9:50 AM 55.4 °F 48.2 °F 77% 30.12 in - SW 11.5 mph - N/A   Clear
10:20 AM 55.4 °F 48.2 °F 77% 30.12 in - WSW 15.0 mph - N/A   Clear
10:50 AM 57.2 °F 48.2 °F 72% 30.15 in 6.2 mi WSW 13.8 mph - N/A   Partly Cloudy
11:20 AM 59.0 °F 48.2 °F 67% 30.15 in 6.2 mi WSW 13.8 mph - N/A   Partly Cloudy
11:50 AM 60.8 °F 50.0 °F 68% 30.15 in 6.2 mi SW 13.8 mph - N/A   Partly Cloudy
12:20 PM 62.6 °F 48.2 °F 59% 30.15 in 6.2 mi SW 15.0 mph - N/A   Partly Cloudy
12:50 PM 60.8 °F 48.2 °F 63% 30.15 in 6.2 mi WSW 11.5 mph - N/A   Scattered Clouds
1:20 PM 62.6 °F 46.4 °F 55% 30.15 in 6.2 mi WSW 15.0 mph - N/A   Scattered Clouds
1:50 PM 68.0 °F 50.0 °F 52% 30.15 in 6.2 mi WSW 13.8 mph - N/A   Scattered Clouds
2:20 PM 62.6 °F 46.4 °F 55% 30.15 in 6.2 mi WSW 15.0 mph - N/A   Scattered Clouds
2:50 PM 64.4 °F 46.4 °F 52% 30.15 in 6.2 mi SW 15.0 mph - N/A   Scattered Clouds
3:20 PM 62.6 °F 46.4 °F 55% 30.15 in 6.2 mi SW 12.7 mph - N/A   Partly Cloudy
3:50 PM 62.6 °F 46.4 °F 55% 30.15 in 6.2 mi SW 17.3 mph - N/A   Partly Cloudy
4:20 PM 62.6 °F 46.4 °F 55% 30.15 in 6.2 mi SW 13.8 mph - N/A   Partly Cloudy
4:50 PM 62.6 °F 46.4 °F 55% 30.15 in 6.2 mi SW 12.7 mph - N/A   Partly Cloudy
5:20 PM 59.0 °F 44.6 °F 59% 30.15 in 6.2 mi SW 10.4 mph - N/A   Partly Cloudy
5:50 PM 59.0 °F 46.4 °F 63% 30.15 in 6.2 mi SW 10.4 mph - N/A   Partly Cloudy
6:20 PM 59.0 °F 46.4 °F 63% 30.15 in 6.2 mi SW 9.2 mph - N/A   Partly Cloudy
6:50 PM 57.2 °F 48.2 °F 72% 30.15 in 6.2 mi SSW 10.4 mph - N/A   Partly Cloudy
7:20 PM 59.0 °F 48.2 °F 67% 30.15 in 6.2 mi SSW 11.5 mph - N/A   Partly Cloudy
7:50 PM 57.2 °F 48.2 °F 72% 30.15 in 6.2 mi SSW 11.5 mph - N/A   Partly Cloudy
8:20 PM 55.4 °F 46.4 °F 72% 30.15 in 6.2 mi SSW 12.7 mph - N/A   Partly Cloudy
8:50 PM 55.4 °F 46.4 °F 72% 30.15 in 6.2 mi SW 11.5 mph - N/A   Partly Cloudy
9:20 PM 55.4 °F 48.2 °F 77% 30.15 in 6.2 mi SSW 10.4 mph - N/A   Partly Cloudy
9:50 PM 55.4 °F 48.2 °F 77% 30.18 in 6.2 mi SW 10.4 mph - N/A   Mostly Cloudy
10:20 PM 53.6 °F 48.2 °F 82% 30.18 in 6.2 mi SW 12.7 mph - N/A   Mostly Cloudy
10:50 PM 55.4 °F 48.2 °F 77% 30.18 in 6.2 mi SW 11.5 mph - N/A   Scattered Clouds
11:20 PM 51.8 °F 48.2 °F 88% 30.18 in 6.2 mi SW 11.5 mph - N/A   Partly Cloudy
11:50 PM 51.8 °F 46.4 °F 82% 30.18 in - SW 6.9 mph - N/A   Clear